[[{"header":{"parameterUnit":"m.s-1","parameterCategory":1,"la1":30.2991,"la2":30.254,"lo1":-89.0895,"lo2":-89.0444,"dy":0.0017,"dx":0.0017,"nx":28,"ny":28,"refTime":"2023-08-16T21:00:00:Z","depth":0,"parameterNumber":2,"parameterNumberName":"U-component_of_WINDS"},"data":[0,0,0,0,0,0,0,0,0,0,0,0,0,0,0,0,0,0,0,0,0,0,0,0,0,0,0,0,0,0,0,0,0,0,0,0,0,0,0,0,0,0,0,0,0,0,0,0,0,0,0,0,0,0,0,0,0,0,-0.5199,-0.52,0,-0.5318,-0.5319,-0.5321,-0.5437,-0.5439,-0.544,-0.5442,-0.556,-0.5562,-0.5563,0,0,0,0,0,0,0,0,0,0,0,0,0,-0.5069,-0.5071,-0.5198,-0.52,-0.5201,-0.5318,-0.5319,-0.5321,-0.5437,-0.5439,-0.544,-0.5442,-0.5559,-0.5562,-0.5564,0,0,0,0,0,0,0,0,0,0,0,0,0,-0.515,-0.5071,-0.5198,-0.5273,-0.5281,-0.5317,-0.5319,-0.5321,-0.5436,-0.5439,-0.5441,-0.5443,-0.5559,-0.5561,-0.5564,-0.5534,0,0,-0.5572,-0.5573,0,0,0,0,0,0,0,0,-0.5145,-0.5155,-0.5261,-0.5268,-0.5277,-0.5365,-0.5317,-0.5393,-0.5436,-0.5377,-0.5442,-0.5444,-0.5493,-0.5501,-0.5518,-0.554,-0.5545,-0.5572,-0.5574,-0.5575,-0.5575,0,0,0,0,0,0,0,-0.514,-0.515,-0.5246,-0.5262,-0.5272,-0.5301,-0.5315,-0.5332,-0.5421,-0.5383,-0.5391,-0.5404,-0.5498,-0.5516,-0.5522,-0.5547,-0.5572,-0.5574,-0.5576,-0.5577,-0.555,-0.5548,0,0,0,0,0,0,-0.5123,-0.5145,-0.5242,-0.5249,-0.5216,-0.5301,-0.5317,-0.5334,-0.5421,-0.5436,-0.5402,-0.5409,-0.551,-0.5519,-0.5527,-0.5497,-0.5575,-0.5577,-0.5579,-0.5552,-0.555,-0.5547,0,0,0,0,0,0,-0.512,-0.5131,-0.5237,-0.52,-0.5215,-0.5301,-0.532,-0.5336,-0.5353,-0.5436,-0.5452,-0.5404,-0.5512,-0.5523,-0.5532,-0.5503,-0.5578,-0.5581,-0.5555,-0.5551,-0.5548,-0.5438,0,0,0,0,0,0,-0.5116,-0.5129,-0.5118,-0.5199,-0.5217,-0.524,-0.5318,-0.5336,-0.5358,-0.5368,-0.5442,-0.5456,-0.5515,-0.5527,-0.5534,-0.5508,-0.5583,-0.5558,-0.5553,-0.5549,-0.5444,-0.5431,-0.542,0,0,0,0,0,-0.5111,-0.5082,-0.5117,-0.5128,-0.5206,-0.5238,-0.5249,-0.5318,-0.5355,-0.5345,-0.5399,-0.5454,-0.5506,-0.5527,-0.5536,-0.551,-0.556,-0.5555,-0.555,-0.545,-0.5434,-0.542,0,0,0,0,0,0,-0.4994,-0.5093,-0.5134,-0.5131,-0.5175,-0.5258,-0.5247,-0.5299,-0.5333,-0.5341,-0.5425,-0.544,-0.5439,-0.5476,-0.5498,-0.5486,-0.5541,-0.5537,-0.5461,-0.5447,-0.5435,-0.5424,-0.5585,0,0,0,0,0,-0.4969,-0.4987,-0.5073,-0.5062,-0.5082,-0.5161,-0.5177,-0.5227,-0.5277,-0.5296,-0.5349,-0.5394,-0.5421,-0.5436,-0.5466,-0.5451,-0.5469,-0.5438,-0.5426,-0.5415,-0.541,-0.5405,-0.5392,-0.553,-0.553,-0.553,0,0,-0.4915,-0.4972,-0.4978,-0.504,-0.508,-0.5097,-0.5176,-0.519,-0.5203,-0.5298,-0.5309,-0.535,-0.5406,-0.5403,-0.5404,-0.5434,-0.5376,-0.5409,-0.54,-0.54,-0.5398,-0.5385,-0.5373,-0.5527,-0.5527,-0.5528,0,0,-0.4825,-0.487,-0.4866,-0.4906,-0.4967,-0.502,-0.5018,-0.5094,-0.5125,-0.5139,-0.521,-0.5227,-0.5271,-0.5308,-0.5332,-0.5259,-0.531,-0.5266,-0.52,-0.5195,-0.5184,-0.5174,-0.5147,-0.5136,-0.5262,-0.5261,-0.5261,0,-0.475,-0.4779,-0.4857,-0.4867,-0.4892,-0.4981,-0.4976,-0.5011,-0.5077,-0.5092,-0.5125,-0.5182,-0.5226,-0.5233,-0.5215,-0.5233,-0.5233,-0.5257,-0.5179,-0.5171,-0.5163,-0.5138,-0.5127,-0.5256,-0.5256,-0.5257,-0.5257,0,-0.4683,-0.4702,-0.4691,-0.4755,-0.4779,-0.4781,-0.4859,-0.4874,-0.4923,-0.4972,-0.4984,-0.5041,-0.5083,-0.5089,-0.5135,-0.5102,-0.5118,-0.5164,-0.522,-0.5143,-0.512,-0.5111,-0.5247,-0.5249,-0.5251,-0.5252,0,0,-0.452,-0.4629,-0.4623,-0.4653,-0.4729,-0.4744,-0.4752,-0.4794,-0.4805,-0.4849,-0.4856,-0.4892,-0.4936,-0.4963,-0.5016,-0.5011,-0.4948,-0.5057,-0.506,-0.5033,-0.4913,-0.4876,-0.4864,-0.4984,-0.4983,-0.4981,-0.4908,0,-0.4442,-0.446,-0.4531,-0.4528,-0.4546,-0.4632,-0.4639,-0.4685,-0.4732,-0.4753,-0.4806,-0.4829,-0.4885,-0.4903,-0.4902,-0.4955,-0.4924,-0.4962,-0.499,-0.499,-0.497,-0.4853,-0.4814,-0.4742,-0.49,-0.4899,-0.4898,0,-0.4352,-0.4391,-0.439,-0.4466,-0.4476,-0.448,-0.4525,-0.4546,-0.46,-0.4635,-0.4667,-0.4726,-0.4738,-0.4792,-0.4809,-0.4833,-0.4849,-0.4877,-0.4876,-0.4879,-0.4937,-0.485,-0.4721,-0.4709,-0.4885,-0.4886,-0.4887,0,-0.4231,-0.4284,-0.429,-0.4314,-0.4402,-0.4403,-0.444,-0.4497,-0.4519,-0.4558,-0.4573,-0.4613,-0.4634,-0.4663,-0.4731,-0.4765,-0.474,-0.48,-0.4768,-0.4766,-0.4756,-0.4755,-0.4624,-0.477,-0.477,-0.477,-0.4771,0,-0.4134,-0.4129,-0.4237,-0.424,-0.4238,-0.4321,-0.4316,-0.4361,-0.4411,-0.4424,-0.4502,-0.4512,-0.4603,-0.4624,-0.4678,-0.4683,-0.4692,-0.472,-0.4733,-0.4711,-0.4707,-0.4721,-0.4726,-0.4768,-0.4768,-0.4769,-0.4769,0,-0.3997,-0.407,-0.4082,-0.4166,-0.4187,-0.4181,-0.4253,-0.4259,-0.4312,-0.4328,-0.4336,-0.4418,-0.4447,-0.4519,-0.4566,-0.4603,-0.4593,-0.462,-0.4574,-0.4582,-0.4545,-0.4547,-0.4416,-0.4403,-0.4558,-0.4557,-0.4555,0,-0.3929,-0.3928,-0.4013,-0.4028,-0.4062,-0.4085,-0.4108,-0.4189,-0.421,-0.4273,-0.4271,-0.4307,-0.4339,-0.4381,-0.4444,-0.4481,-0.4508,-0.446,-0.4514,-0.4492,-0.4505,-0.4503,-0.4503,-0.4447,-0.4445,-0.4443,-0.4442,0,-0.3801,-0.3837,-0.3868,-0.391,-0.3936,-0.3973,-0.4015,-0.4023,-0.4115,-0.4133,-0.4165,-0.419,-0.4239,-0.4273,-0.432,-0.4357,-0.4414,-0.4425,-0.4419,-0.4395,-0.4368,-0.438,-0.4539,-0.4427,-0.4428,-0.4429,-0.443,-0.4431,-0.3696,-0.3698,-0.3758,-0.379,-0.383,-0.3868,-0.3878,-0.3933,-0.3961,-0.4008,-0.4055,-0.4081,-0.4137,-0.4206,-0.4239,-0.4261,-0.429,-0.4282,-0.4279,-0.4275,-0.4265,-0.4367,-0.427,-0.427,-0.4271,-0.4271,-0.4272,0,-0.3569,-0.3613,-0.3641,-0.3698,-0.3722,-0.3777,-0.3826,-0.3842,-0.3865,-0.3913,-0.3944,-0.3979,-0.4013,-0.408,-0.4119,-0.4123,-0.415,-0.413,-0.4129,-0.4137,-0.4237,-0.4237,-0.4108,-0.4108,-0.4108,-0.4108,-0.4108,-0.4108,-0.3506,-0.3514,-0.3558,-0.3586,-0.363,-0.3657,-0.368,-0.3715,-0.3754,-0.3791,-0.3819,-0.3864,-0.3919,-0.3964,-0.3996,-0.4016,-0.4025,-0.3997,-0.4023,-0.4115,-0.413,-0.4145,-0.4145,-0.3999,-0.3998,-0.3922,-0.3921,-0.392]},{"header":{"parameterUnit":"m.s-1","parameterCategory":1,"la1":30.2991,"la2":30.254,"lo1":-89.0895,"lo2":-89.0444,"dy":0.0017,"dx":0.0017,"nx":28,"ny":28,"refTime":"2023-08-16T21:00:00:Z","depth":0,"parameterNumber":3,"parameterNumberName":"V-component_of_WINDS"},"data":[0,0,0,0,0,0,0,0,0,0,0,0,0,0,0,0,0,0,0,0,0,0,0,0,0,0,0,0,0,0,0,0,0,0,0,0,0,0,0,0,0,0,0,0,0,0,0,0,0,0,0,0,0,0,0,0,0,0,-1.1196,-1.1196,0,-1.1277,-1.1278,-1.1279,-1.1322,-1.1322,-1.1322,-1.1323,-1.1407,-1.1409,-1.1411,0,0,0,0,0,0,0,0,0,0,0,0,0,-1.1079,-1.1081,-1.1196,-1.1197,-1.1198,-1.1277,-1.1278,-1.1279,-1.1322,-1.1322,-1.1323,-1.1323,-1.1406,-1.1409,-1.1411,0,0,0,0,0,0,0,0,0,0,0,0,0,-1.1142,-1.1081,-1.1195,-1.1229,-1.1232,-1.1277,-1.1278,-1.1279,-1.1322,-1.1322,-1.1323,-1.1323,-1.1405,-1.1408,-1.1411,-1.1429,0,0,-1.1421,-1.1423,0,0,0,0,0,0,0,0,-1.1138,-1.1146,-1.1223,-1.1226,-1.1231,-1.129,-1.1268,-1.133,-1.1322,-1.1288,-1.1323,-1.1323,-1.1368,-1.1374,-1.1389,-1.1433,-1.1437,-1.1422,-1.1424,-1.1425,-1.1426,0,0,0,0,0,0,0,-1.1134,-1.1143,-1.1228,-1.1224,-1.1229,-1.124,-1.1249,-1.128,-1.1326,-1.1291,-1.1295,-1.1304,-1.137,-1.1386,-1.1391,-1.1438,-1.1422,-1.1424,-1.1426,-1.1428,-1.1502,-1.1502,0,0,0,0,0,0,-1.1124,-1.1139,-1.1225,-1.123,-1.1184,-1.1242,-1.1252,-1.1271,-1.1326,-1.1335,-1.1303,-1.1305,-1.138,-1.1388,-1.1394,-1.1419,-1.1425,-1.1428,-1.143,-1.1502,-1.1502,-1.1502,0,0,0,0,0,0,-1.1121,-1.1131,-1.1222,-1.1186,-1.1198,-1.1244,-1.1264,-1.1272,-1.1288,-1.1335,-1.1344,-1.1311,-1.1381,-1.139,-1.142,-1.1423,-1.1429,-1.1432,-1.1502,-1.1502,-1.1502,-1.1469,0,0,0,0,0,0,-1.1118,-1.113,-1.1136,-1.1185,-1.12,-1.1246,-1.1264,-1.1274,-1.1294,-1.1297,-1.1345,-1.1353,-1.1381,-1.1415,-1.1424,-1.1427,-1.1435,-1.1502,-1.1502,-1.1502,-1.147,-1.1468,-1.1466,0,0,0,0,0,-1.1113,-1.1124,-1.1137,-1.1147,-1.1209,-1.1246,-1.1254,-1.1287,-1.1293,-1.1301,-1.1332,-1.1351,-1.1421,-1.1418,-1.1428,-1.1433,-1.1502,-1.1502,-1.1502,-1.1471,-1.1468,-1.1466,0,0,0,0,0,0,-1.1074,-1.1131,-1.1146,-1.1172,-1.1204,-1.1253,-1.1263,-1.1283,-1.1313,-1.1315,-1.1355,-1.1365,-1.1392,-1.1416,-1.1411,-1.1453,-1.1464,-1.1466,-1.1437,-1.1435,-1.1433,-1.1426,-1.1438,0,0,0,0,0,-1.1068,-1.1093,-1.1142,-1.1161,-1.1176,-1.1217,-1.1234,-1.1257,-1.1291,-1.1305,-1.1337,-1.137,-1.14,-1.1419,-1.1449,-1.1474,-1.1485,-1.1482,-1.148,-1.1478,-1.1479,-1.1495,-1.1495,-1.1502,-1.1502,-1.1502,0,0,-1.1057,-1.1091,-1.1105,-1.1154,-1.1181,-1.1206,-1.1228,-1.1253,-1.1273,-1.1309,-1.134,-1.1365,-1.1404,-1.1432,-1.1446,-1.1453,-1.148,-1.1478,-1.1476,-1.1479,-1.1495,-1.1494,-1.1494,-1.1502,-1.1502,-1.1502,0,0,-1.105,-1.1078,-1.1097,-1.1124,-1.1165,-1.1192,-1.1197,-1.1244,-1.1262,-1.1293,-1.1321,-1.1345,-1.1395,-1.1423,-1.1443,-1.1447,-1.1467,-1.1456,-1.1445,-1.146,-1.146,-1.146,-1.1462,-1.1462,-1.1457,-1.1457,-1.1457,0,-1.103,-1.1069,-1.1104,-1.1129,-1.115,-1.1184,-1.1204,-1.1229,-1.1277,-1.1291,-1.1298,-1.1362,-1.1391,-1.1427,-1.1428,-1.1443,-1.145,-1.145,-1.1457,-1.1457,-1.1457,-1.146,-1.146,-1.1455,-1.1456,-1.1456,-1.1456,0,-1.1044,-1.1071,-1.1081,-1.1128,-1.115,-1.1172,-1.1211,-1.123,-1.1251,-1.1278,-1.131,-1.1346,-1.1385,-1.1395,-1.1415,-1.1433,-1.1436,-1.1449,-1.1461,-1.1454,-1.1457,-1.1459,-1.1453,-1.1454,-1.1454,-1.1455,0,0,-1.1012,-1.1079,-1.1082,-1.1104,-1.1153,-1.1174,-1.1199,-1.1236,-1.1252,-1.1285,-1.1306,-1.1348,-1.1361,-1.1384,-1.1409,-1.1422,-1.1424,-1.1434,-1.1435,-1.1431,-1.1447,-1.1437,-1.1437,-1.1437,-1.1438,-1.1438,-1.1444,0,-1.1012,-1.1056,-1.1089,-1.1122,-1.1147,-1.1181,-1.1202,-1.1234,-1.1261,-1.1287,-1.1316,-1.1345,-1.136,-1.1374,-1.1389,-1.142,-1.1428,-1.1421,-1.1458,-1.1459,-1.1447,-1.1439,-1.1427,-1.1431,-1.1445,-1.1445,-1.1446,0,-1.1016,-1.1048,-1.1083,-1.113,-1.1142,-1.1161,-1.1198,-1.1223,-1.1261,-1.1279,-1.1305,-1.1331,-1.1359,-1.1368,-1.1407,-1.1402,-1.1419,-1.1437,-1.1438,-1.1443,-1.1452,-1.1443,-1.1433,-1.1433,-1.1448,-1.1447,-1.1447,0,-1.099,-1.1042,-1.107,-1.1088,-1.1143,-1.1155,-1.1179,-1.1217,-1.1238,-1.1271,-1.1285,-1.1321,-1.1341,-1.1369,-1.1403,-1.1406,-1.144,-1.1451,-1.1456,-1.1455,-1.1461,-1.146,-1.1453,-1.1472,-1.1472,-1.1472,-1.1472,0,-1.0986,-1.1006,-1.1059,-1.1076,-1.11,-1.1138,-1.1161,-1.1188,-1.1222,-1.1245,-1.1277,-1.1298,-1.1342,-1.1369,-1.1397,-1.1426,-1.1434,-1.145,-1.1457,-1.1448,-1.1445,-1.1459,-1.146,-1.1472,-1.1472,-1.1472,-1.1472,0,-1.096,-1.0996,-1.1029,-1.1079,-1.1092,-1.1108,-1.1151,-1.1169,-1.1198,-1.1227,-1.1236,-1.1281,-1.1315,-1.1352,-1.1398,-1.1417,-1.1444,-1.1455,-1.1431,-1.1435,-1.1438,-1.1437,-1.144,-1.1443,-1.1459,-1.1459,-1.1459,0,-1.0954,-1.097,-1.1023,-1.1041,-1.1064,-1.1092,-1.1114,-1.1153,-1.1174,-1.122,-1.1232,-1.1269,-1.1299,-1.1352,-1.1389,-1.1425,-1.1436,-1.1435,-1.1442,-1.1431,-1.1436,-1.1435,-1.1437,-1.1432,-1.1432,-1.1432,-1.1431,0,-1.094,-1.0958,-1.0988,-1.1024,-1.105,-1.108,-1.1112,-1.1125,-1.1171,-1.1193,-1.1228,-1.1252,-1.13,-1.1336,-1.1376,-1.1402,-1.1424,-1.1429,-1.1432,-1.1422,-1.1408,-1.1416,-1.1426,-1.1429,-1.1429,-1.1429,-1.1429,-1.1429,-1.0924,-1.0941,-1.0981,-1.1013,-1.1042,-1.1071,-1.1091,-1.1123,-1.1152,-1.1194,-1.1216,-1.1251,-1.129,-1.1347,-1.1372,-1.14,-1.1407,-1.1411,-1.1413,-1.1413,-1.1411,-1.1404,-1.1408,-1.1408,-1.1408,-1.1408,-1.1408,0,-1.0912,-1.094,-1.097,-1.1014,-1.104,-1.1059,-1.1096,-1.1117,-1.1147,-1.1182,-1.1212,-1.1253,-1.1288,-1.1328,-1.1367,-1.1382,-1.1393,-1.139,-1.1389,-1.1395,-1.1402,-1.1395,-1.138,-1.138,-1.138,-1.138,-1.138,-1.138,-1.0909,-1.0938,-1.0961,-1.1005,-1.1033,-1.1067,-1.1087,-1.1114,-1.1143,-1.1187,-1.1216,-1.1243,-1.128,-1.1321,-1.1355,-1.1366,-1.1379,-1.1373,-1.1387,-1.1392,-1.1394,-1.1397,-1.1391,-1.1375,-1.1375,-1.1378,-1.1378,-1.1378]}]]